Location: Kunchanapalle
(16.4623°N, 80.6176°E)
Time: 18:06:23
(UTC+00:00)

Cosmos 1023 Rocket - Pass Details

Date: 13 August 2020
Orbit: 737 x 772 km, 74.1° (Epoch: 18 September)

Event Time Altitude Azimuth Distance (km) Brightness Sun altitude
Rises 13:55:22 0° 192° (SSW) 3,220 7.7 -12.7°
Reaches altitude 10° 13:57:44 10° 191° (SSW) 2,299 6.9 -13.3°
Maximum altitude 14:02:58 86° 103° (ESE) 774 4.4 -14.5°
Drops below altitude 10° 14:08:13 10° 14° (NNE) 2,310 7.1 -15.6°
Sets 14:10:36 0° 14° (NNE) 3,238 7.8 -16.2°
